Find KUIPER-00499

NORAD ID: 68881 Int'l Des: 2026-095T Owner: kuiper Country: USA Constellation: kuiper operational
LEOCIRCULAR

リアルタイム位置

3D地球を読み込み中...

KUIPER-00499について

説明を読み込み中...

次回通過

Passes for default location (London). Set your location on the main map for personalized predictions.

高度履歴

Loading altitude history...

軌道要素

1 68881U 26095T 26121.91668981 .00046974 00000-0 13212-2 0 9994
2 68881 51.8688 106.1586 0010470 135.6820 104.9575 15.35977295 1301
Epoch: May 1, 2026 • Age: 6 hours

現在のステータス

高度 452.8 km
速度 7.65 km/s
衛星直下点 32.41°N, 21.77°W
タイプ internet

Most Searched